Location: Mahannah Oil Field
(37.4664°N, 96.6003°W)
Time: 02:16:56
(UTC+00:00)

A-11 Canister half - Pass Details

Date: 02 February 2021
Orbit: 1525 x 1684 km, 47.3° (Epoch: 02 March)

Event Time Altitude Azimuth Distance (km) Brightness Sun altitude
Rises 01:45:00 0° 300° (WNW) 4,739 12.4 -22.8°
Reaches altitude 10° 01:48:08 10° 296° (WNW) 3,773 11.9 -23.5°
Maximum altitude 01:57:14 50° 225° (SW) 1,972 9.7 -25.3°
Drops below altitude 10° 02:06:37 10° 153° (SSE) 3,881 10.9 -27.1°
Enters shadow 02:07:38 - 151° (SSE) 4,186 11.0 -27.3°
Sets 02:09:55 0° 148° (SSE) 4,883 - -27.8°
